Torna al catalogo

STARLINK-11636

AttivoComunicazioniVLEO
NORAD 63194·PAYLOAD·🇺🇸 United States

Lanciato Mar 13, 2025 da Cape Canaveral Space Force Station

Loading…

Prossimi Passaggi (prossime 24 ore)

TLE

AggiornatoSource: CelesTrak SupGP

Epoca: Sep 14, 2026, 21:09 UTC

1 63194C 25048M   26257.88173611  .00016804  00000+0  13056-3 0  2572
2 63194  43.0007 259.6651 0001560 257.6341 129.3974 15.70821903    15

Traccia STARLINK-11636 in tempo reale con AllMySat

Download on the App Store